Location: Kellogg
(38.0159°N, 90.0546°W)
Time: 21:41:05
(UTC+00:00)

Vanguard 2 - Pass Details

Date: 26 September 2024
Orbit: 552 x 2910 km, 32.9° (Epoch: 09 October)

Event Time Altitude Azimuth Distance (km) Brightness Sun altitude
Rises 06:57:50 0° 251° (WSW) 2,931 - -50.4°
Reaches altitude 10° 07:00:22 10° 243° (WSW) 1,896 - -50.2°
Maximum altitude 07:04:11 38° 174° (S) 840 - -49.8°
Drops below altitude 10° 07:07:58 10° 104° (ESE) 1,885 - -49.5°
Sets 07:10:29 0° 97° (E) 2,911 - -49.2°
